Hourly Data Report for February 04, 2021

OTTAWA INTL A
ONTARIO
Current Station Operator: NAVCAN

45°19'00.000" N
75°40'00.000" W
114.90 m
6106001
71628
YOW

Download Data

Hourly Data (February 2021)
Hourly Data Report for February 4, 2021
TIME
LST
Temp Definition
°C
Dew Point Definition
°C
Rel Hum Definition
%
Precip. Amount Definition
mm

Wind Dir Definition
10's deg

Wind Spd Definition
km/h
Visibility Definition
km
Stn Press Definition
kPa
Hmdx Definition


Wind Chill Definition


Weather Definition


00:00 -2.6 -9.4 60   32 29 24.1 99.35   -10 LegendNANA
01:00 -3.8 -9.8 63   32 24 24.1 99.40   -11 Mainly Clear
02:00 -4.3 -10.3 63   29 17 24.1 99.49   -10 LegendNANA
03:00 -5.6 -10.9 66   30 18 24.1 99.53   -12 LegendNANA
04:00 -5.8 -10.7 69   29 20 24.1 99.57   -13 Mostly Cloudy
05:00 -6.7 -11.1 71   28 14 24.1 99.62   -12 LegendNANA
06:00 -7.0 -11.2 72   30 22 24.1 99.68   -14 LegendNANA
07:00 -7.7 -11.4 75   29 19 24.1 99.76   -15 Clear
08:00 -8.0 -11.7 75   30 21 24.1 99.82   -16 LegendNANA
09:00 -7.6 -11.5 74   30 15 24.1 99.82   -14 LegendNANA
10:00 -6.0 -10.8 69   28 17 24.1 99.87   -12 Clear
11:00 -4.4 -10.2 64   28 16 24.1 99.84   -10 LegendNANA
12:00 -2.8 -9.3 61   25 12 24.1 99.80   -7 LegendNANA
13:00 -1.2 -9.0 56   24 16 24.1 99.76   -6 Clear
14:00 -0.8 -8.4 56   25 21 24.1 99.72   -6 LegendNANA
15:00 0.0 -8.2 55   25 14 24.1 99.69   -4 LegendNANA
16:00 0.7 -7.7 54   23 9 24.1 99.66     Clear
17:00 -0.2 -8.5 54   24 8 24.1 99.63   -3 LegendNANA
18:00 -1.5 -8.3 60   24 5 24.1 99.65   -3 LegendNANA
19:00 -3.0 -8.8 64   29 4 24.1 99.61   -5 Clear
20:00 -3.5 -8.9 67   18 14 24.1 99.57   -9 LegendNANA
21:00 -3.9 -8.4 71   19 10 24.1 99.48   -8 LegendNANA
22:00 -5.2 -7.9 81   18 10 24.1 99.42   -10 Clear
23:00 -6.0 -9.0 79   16 10 24.1 99.35   -10 LegendNANA

Notes on Data Quality.

Legend

  • E = Estimated
  • M = Missing
  • NA = Not Available*
  • [empty] = Indicates an unobserved value
Date modified: